Location: Country View Observatory
(32.9873°N, 83.6444°W)
Time: 02:50:51
(UTC-04:00)

ISS - Visible Passes

Search period start: 17 September 2019 00:00
Search period end: 27 September 2019 00:00
Orbit: 411 x 421 km, 51.6° (Epoch: 17 September)

Date Brightness Start Highest point End Pass type
(mag) Time Alt. Az. Time Alt. Az. Time Alt. Az.
17 Sep -2.2 05:47:24 25° SSE 05:47:24 25° SSE 05:49:02 10° SSE visible
17 Sep -3.4 20:45:28 10° SSW 20:48:36 42° SE 20:49:14 37° E visible
18 Sep -2.4 19:57:41 10° S 20:00:17 21° SE 20:02:54 10° ENE visible
18 Sep -1.7 21:34:02 10° W 21:36:48 27° NW 21:36:48 27° NW visible
19 Sep -2.9 20:45:10 10° WSW 20:48:22 49° NW 20:51:07 13° NNE visible
20 Sep -3.8 19:56:37 10° SW 19:59:55 82° SE 20:03:14 10° NE visible
20 Sep -0.7 21:35:47 10° NW 21:37:01 12° NNW 21:38:07 10° N visible
21 Sep -1.1 20:45:59 10° W 20:48:20 18° NNW 20:50:41 10° NNE visible
22 Sep -1.8 19:56:46 10° W 19:59:43 29° NW 20:02:40 10° NNE visible
24 Sep -0.9 19:58:15 10° WNW 19:59:44 12° NNW 20:01:12 10° N visible
